| time (UTC) | temp F | wind direction | speed MPH | gust MPH | rain 1hr in | rain 24hr in | rain mn in | humidity % | barometer mb |
| 20260509181537 | 67 | 360 | 0.0 | 0.0 | 0.00 | 0.23 | 0.00 | 76 | 1005.9 |
| 20260509180031 | 67 | 360 | 0.0 | 0.0 | 0.00 | 0.23 | 0.00 | 77 | 1005.9 |
| 20260509174529 | 67 | 360 | 0.0 | 0.0 | 0.00 | 0.23 | 0.00 | 79 | 1005.9 |
| 20260509173026 | 66 | 360 | 0.0 | 0.0 | 0.00 | 0.23 | 0.00 | 79 | 1006.1 |
| 20260509171523 | 65 | 360 | 0.0 | 0.0 | 0.00 | 0.23 | 0.00 | 78 | 1006.3 |
| 20260509170021 | 65 | 190 | 0.0 | 0.0 | 0.00 | 0.23 | 0.00 | 82 | 1006.5 |
| 20260509164520 | 65 | 180 | 0.0 | 0.0 | 0.00 | 0.23 | 0.00 | 81 | 1006.5 |
| 20260509163018 | 64 | 197 | 0.0 | 0.0 | 0.00 | 0.23 | 0.00 | 81 | 1006.6 |
| 20260509161517 | 63 | 360 | 0.0 | 0.0 | 0.00 | 0.23 | 0.00 | 81 | 1006.4 |
| 20260509160015 | 62 | 192 | 0.0 | 0.0 | 0.00 | 0.23 | 0.00 | 84 | 1006.5 |
| 20260509154516 | 62 | 360 | 0.0 | 0.0 | 0.00 | 0.23 | 0.00 | 84 | 1006.4 |
| 20260509153011 | 61 | 360 | 0.0 | 0.0 | 0.00 | 0.23 | 0.00 | 84 | 1006.5 |
| 20260509151506 | 61 | 194 | 0.0 | 0.0 | 0.00 | 0.23 | 0.00 | 84 | 1006.6 |
| 20260509150002 | 60 | 360 | 0.0 | 0.0 | 0.00 | 0.23 | 0.00 | 84 | 1006.6 |
| 20260509144604 | 60 | 215 | 0.0 | 0.0 | 0.00 | 0.23 | 0.00 | 85 | 1006.7 |
| 20260509143055 | 60 | 360 | 0.0 | 0.0 | 0.00 | 0.23 | 0.00 | 86 | 1006.7 |
| 20260509141553 | 59 | 236 | 0.0 | 0.0 | 0.00 | 0.23 | 0.00 | 87 | 1006.9 |
| 20260509140051 | 59 | 360 | 0.0 | 0.0 | 0.00 | 0.23 | 0.00 | 88 | 1006.7 |
| 20260509134548 | 58 | 360 | 0.0 | 0.0 | 0.00 | 0.23 | 0.00 | 89 | 1006.7 |
| 20260509133044 | 57 | 360 | 0.0 | 0.0 | 0.00 | 0.23 | 0.00 | 90 | 1007.0 |
| 20260509131547 | 56 | 360 | 0.0 | 0.0 | 0.00 | 0.23 | 0.00 | 90 | 1006.9 |
| 20260509130053 | 56 | 360 | 0.0 | 0.0 | 0.00 | 0.23 | 0.00 | 90 | 1006.6 |
| 20260509124539 | 55 | 208 | 0.0 | 0.0 | 0.00 | 0.23 | 0.00 | 89 | 1006.8 |
| 20260509123030 | 54 | 360 | 0.0 | 0.0 | 0.00 | 0.23 | 0.00 | 89 | 1006.8 |
| 20260509121529 | 54 | 360 | 0.0 | 0.0 | 0.00 | 0.23 | 0.00 | 89 | 1007.0 |
| 20260509120031 | 53 | 360 | 0.0 | 0.0 | 0.00 | 0.23 | 0.00 | 89 | 1007.1 |
| 20260509114523 | 52 | 200 | 0.0 | 0.0 | 0.00 | 0.26 | 0.00 | 89 | 1007.1 |
| 20260509113022 | 52 | 200 | 0.0 | 0.0 | 0.00 | 0.26 | 0.00 | 90 | 1006.8 |
| 20260509111521 | 53 | 360 | 0.0 | 0.0 | 0.00 | 0.26 | 0.00 | 89 | 1006.7 |
| 20260509110021 | 53 | 360 | 0.0 | 0.0 | 0.00 | 0.26 | 0.00 | 89 | 1006.4 |
| 20260509104516 | 53 | 360 | 0.0 | 0.0 | 0.00 | 0.27 | 0.00 | 89 | 1006.4 |
| 20260509103017 | 53 | 213 | 0.0 | 0.0 | 0.00 | 0.27 | 0.00 | 89 | 1006.5 |
| 20260509101515 | 53 | 360 | 0.0 | 0.0 | 0.00 | 0.27 | 0.00 | 89 | 1006.5 |
| 20260509100018 | 53 | 360 | 0.0 | 0.0 | 0.00 | 0.27 | 0.00 | 89 | 1006.6 |
| 20260509094512 | 53 | 360 | 0.0 | 0.0 | 0.00 | 0.27 | 0.00 | 89 | 1006.5 |
| 20260509093010 | 53 | 194 | 0.0 | 0.0 | 0.00 | 0.27 | 0.00 | 89 | 1006.6 |
| 20260509091509 | 52 | 201 | 0.0 | 0.0 | 0.00 | 0.27 | 0.00 | 89 | 1006.7 |
| 20260509090010 | 52 | 360 | 0.0 | 0.0 | 0.00 | 0.27 | 0.00 | 89 | 1006.7 |
| 20260509084517 | 52 | 179 | 0.0 | 0.0 | 0.00 | 0.27 | 0.00 | 89 | 1006.4 |
| 20260509083015 | 52 | 172 | 0.0 | 0.0 | 0.00 | 0.27 | 0.00 | 90 | 1006.5 |
| 20260509081512 | 52 | 183 | 0.0 | 0.0 | 0.00 | 0.27 | 0.00 | 90 | 1006.5 |
| 20260509080005 | 52 | 188 | 0.0 | 0.0 | 0.00 | 0.27 | 0.00 | 89 | 1006.5 |
| 20260509074509 | 51 | 360 | 0.0 | 0.0 | 0.00 | 0.27 | 0.00 | 90 | 1006.7 |
| 20260509073002 | 51 | 171 | 0.0 | 0.0 | 0.00 | 0.27 | 0.00 | 90 | 1007.0 |
| 20260509071600 | 52 | 360 | 0.0 | 0.0 | 0.00 | 0.27 | 0.00 | 90 | 1007.1 |
| 20260509070105 | 52 | 360 | 0.0 | 0.0 | 0.00 | 0.27 | 0.00 | 90 | 1007.4 |
| 20260509064555 | 52 | 209 | 0.0 | 0.0 | 0.00 | 0.27 | 0.00 | 90 | 1007.6 |
| 20260509063054 | 52 | 360 | 0.0 | 0.0 | 0.00 | 0.27 | 0.00 | 89 | 1007.7 |
| 20260509061611 | 52 | 360 | 0.0 | 0.0 | 0.00 | 0.27 | 0.00 | 89 | 1007.9 |
| 20260509060109 | 52 | 171 | 0.0 | 0.0 | 0.00 | 0.27 | 0.00 | 90 | 1007.9 |
| 20260509054553 | 52 | 163 | 0.0 | 0.0 | 0.00 | 0.27 | 0.00 | 90 | 1008.0 |
| 20260509053049 | 52 | 360 | 0.0 | 0.0 | 0.00 | 0.27 | 0.00 | 90 | 1008.1 |
| 20260509051550 | 52 | 162 | 0.0 | 0.0 | 0.00 | 0.27 | 0.00 | 90 | 1008.0 |
| 20260509044557 | 52 | 360 | 0.0 | 0.0 | 0.00 | 0.27 | 0.00 | 90 | 1008.0 |
| 20260509043046 | 52 | 360 | 0.0 | 0.0 | 0.00 | 0.27 | 0.00 | 90 | 1008.1 |
| 20260509041544 | 52 | 190 | 0.0 | 0.0 | 0.00 | 0.27 | 0.00 | 90 | 1008.1 |
| 20260509040042 | 53 | 190 | 0.0 | 0.0 | 0.00 | 0.27 | 0.00 | 90 | 1008.2 |
| 20260509034543 | 53 | 173 | 0.0 | 0.0 | 0.00 | 0.27 | 0.27 | 90 | 1008.1 |
| 20260509033041 | 53 | 173 | 0.0 | 0.0 | 0.00 | 0.27 | 0.27 | 90 | 1008.3 |
| 20260509031546 | 53 | 173 | 0.0 | 0.0 | 0.00 | 0.27 | 0.27 | 90 | 1008.3 |
| 20260509030042 | 53 | 209 | 0.0 | 0.0 | 0.00 | 0.27 | 0.27 | 90 | 1008.4 |
| 20260509024538 | 53 | 360 | 0.0 | 0.0 | 0.00 | 0.27 | 0.27 | 90 | 1008.3 |
| 20260509023039 | 53 | 360 | 0.0 | 0.0 | 0.00 | 0.27 | 0.27 | 90 | 1008.4 |
| 20260509021537 | 53 | 360 | 0.0 | 0.0 | 0.00 | 0.27 | 0.27 | 90 | 1008.2 |
| 20260509020036 | 53 | 360 | 0.0 | 0.0 | 0.00 | 0.27 | 0.27 | 90 | 1008.3 |
| 20260509014536 | 54 | 360 | 0.0 | 0.0 | 0.00 | 0.27 | 0.27 | 90 | 1008.3 |
| 20260509013038 | 54 | 360 | 0.0 | 0.0 | 0.00 | 0.27 | 0.27 | 90 | 1008.4 |
| 20260509011535 | 54 | 172 | 0.0 | 0.0 | 0.00 | 0.27 | 0.27 | 90 | 1008.3 |
| 20260509010034 | 54 | 194 | 0.0 | 0.0 | 0.00 | 0.27 | 0.27 | 90 | 1008.3 |
| 20260509004538 | 55 | 360 | 0.0 | 0.0 | 0.00 | 0.27 | 0.27 | 90 | 1008.3 |
| 20260509003038 | 55 | 194 | 0.0 | 0.0 | 0.00 | 0.27 | 0.27 | 89 | 1008.4 |
| 20260509001532 | 55 | 196 | 0.0 | 0.0 | 0.00 | 0.27 | 0.27 | 89 | 1008.4 |
| 20260509000037 | 55 | 180 | 0.0 | 0.0 | 0.00 | 0.27 | 0.27 | 89 | 1008.4 |
| 20260508234537 | 55 | 180 | 0.0 | 0.0 | 0.00 | 0.27 | 0.27 | 89 | 1008.4 |
| 20260508233032 | 55 | 360 | 0.0 | 0.0 | 0.00 | 0.27 | 0.27 | 90 | 1008.5 |
| 20260508231530 | 55 | 194 | 0.0 | 0.0 | 0.00 | 0.27 | 0.27 | 89 | 1008.6 |
| 20260508230029 | 56 | 176 | 0.0 | 0.0 | 0.00 | 0.27 | 0.27 | 89 | 1008.6 |
| 20260508224533 | 56 | 360 | 0.0 | 0.0 | 0.00 | 0.28 | 0.27 | 89 | 1008.5 |
| 20260508223034 | 56 | 360 | 0.0 | 0.0 | 0.00 | 0.28 | 0.27 | 90 | 1008.6 |
| 20260508221531 | 56 | 191 | 0.0 | 0.0 | 0.00 | 0.28 | 0.27 | 90 | 1008.6 |
| 20260508220027 | 56 | 360 | 0.0 | 0.0 | 0.00 | 0.28 | 0.27 | 90 | 1008.7 |
| 20260508214527 | 55 | 186 | 0.0 | 0.0 | 0.00 | 0.28 | 0.27 | 90 | 1008.5 |
| 20260508213026 | 55 | 178 | 0.0 | 0.0 | 0.00 | 0.28 | 0.27 | 89 | 1008.6 |
| 20260508211524 | 55 | 360 | 0.0 | 0.0 | 0.03 | 0.28 | 0.27 | 89 | 1008.8 |
| 20260508210022 | 55 | 360 | 0.0 | 0.0 | 0.05 | 0.28 | 0.27 | 90 | 1009.0 |
| 20260508204521 | 56 | 180 | 0.0 | 0.0 | 0.07 | 0.28 | 0.27 | 90 | 1009.1 |
| 20260508203019 | 56 | 360 | 0.0 | 0.0 | 0.09 | 0.28 | 0.27 | 90 | 1009.5 |
| 20260508201523 | 56 | 226 | 0.0 | 0.0 | 0.09 | 0.25 | 0.24 | 90 | 1009.7 |
| 20260508200020 | 56 | 360 | 0.0 | 0.0 | 0.11 | 0.22 | 0.21 | 90 | 1009.8 |
| 20260508194513 | 55 | 269 | 0.0 | 0.0 | 0.12 | 0.21 | 0.20 | 89 | 1010.0 |
| 20260508193017 | 56 | 360 | 0.0 | 0.0 | 0.11 | 0.18 | 0.17 | 89 | 1010.2 |
| 20260508191516 | 56 | 360 | 0.0 | 0.0 | 0.11 | 0.16 | 0.15 | 89 | 1010.4 |
| 20260508190011 | 56 | 360 | 0.0 | 0.0 | 0.06 | 0.11 | 0.10 | 87 | 1010.2 |
| 20260508184510 | 58 | 360 | 0.0 | 0.0 | 0.04 | 0.09 | 0.08 | 84 | 1010.1 |
| 20260508183010 | 58 | 360 | 0.0 | 0.0 | 0.02 | 0.07 | 0.06 | 82 | 1010.2 |